,,,PA_Meas_PMT16A,,PR_Meas_QMR101_102,,RH_Meas_QMH101,,SR_Meas_QMS101,,TA_Meas_QMH101,,GenWind,,GenWind,
date,time,status,PA,status,PR,status,RH,status,SR,status,TA,status,DirAvg,status,SpdAvg,
2008-05-29, 00:00:04,VALID,1004.57,VALID,0,VALID,87.1752,VALID,0,VALID,25.6545,VALID,355,VALID,1.06055,
2008-05-29, 00:01:04,VALID,1004.58,VALID,0,VALID,87.0913,VALID,0,VALID,25.633,VALID,25,VALID,0.730469,
2008-05-29, 00:02:04,VALID,1004.55,VALID,0,VALID,87.2134,VALID,0,VALID,25.6525,VALID,48,VALID,0.696484,
2008-05-29, 00:03:04,VALID,1004.53,VALID,0,VALID,87.0455,VALID,0,VALID,25.7129,VALID,20,VALID,1.11094,
2008-05-29, 00:04:04,VALID,1004.53,VALID,0,VALID,86.8548,VALID,0,VALID,25.7519,VALID,14,VALID,1.35039,
2008-05-29, 00:05:04,VALID,1004.51,VALID,0,VALID,86.7556,VALID,0,VALID,25.7694,VALID,348,VALID,0.973047,
2008-05-29, 00:06:04,VALID,1004.51,VALID,0,VALID,86.6946,VALID,0,VALID,25.7889,VALID,18,VALID,1.28711,
2008-05-29, 00:07:04,VALID,1004.51,VALID,0,VALID,86.6488,VALID,0,VALID,25.8103,VALID,19,VALID,0.640625,
2008-05-29, 00:08:04,VALID,1004.52,VALID,0,VALID,86.5725,VALID,0,VALID,25.7889,VALID,27,VALID,0.915625,
2008-05-29, 00:09:04,VALID,1004.49,VALID,0,VALID,86.6488,VALID,0,VALID,25.8103,VALID,26,VALID,1.27539,
2008-05-29, 00:10:04,VALID,1004.47,VALID,0,VALID,86.6488,VALID,0.100563,VALID,25.7869,VALID,341,VALID,0.99375,
2008-05-29, 00:11:04,VALID,1004.46,VALID,0,VALID,86.809,VALID,0,VALID,25.7694,VALID,41,VALID,1.29336,
2008-05-29, 00:12:04,VALID,1004.45,VALID,0,VALID,86.7785,VALID,0.100563,VALID,25.7869,VALID,59,VALID,0.986719,
2008-05-29, 00:13:04,VALID,1004.42,VALID,0,VALID,86.7633,VALID,0.100563,VALID,25.7674,VALID,33,VALID,0.498828,
2008-05-29, 00:14:04,VALID,1004.45,VALID,0,VALID,86.8853,VALID,0.100563,VALID,25.7285,VALID,16,VALID,0.935938,
2008-05-29, 00:15:04,VALID,1004.41,VALID,0,VALID,86.9769,VALID,0.100563,VALID,25.7285,VALID,12,VALID,0.798437,
2008-05-29, 00:16:04,VALID,1004.41,VALID,0,VALID,86.9769,VALID,0,VALID,25.7285,VALID,37,VALID,0.892578,
2008-05-29, 00:17:04,VALID,1004.38,VALID,0,VALID,86.9769,VALID,0,VALID,25.7674,VALID,56,VALID,0.766016,
2008-05-29, 00:18:04,VALID,1004.4,VALID,0,VALID,86.9311,VALID,0,VALID,25.7889,VALID,11,VALID,1.04766,
2008-05-29, 00:19:04,VALID,1004.36,VALID,0,VALID,86.9464,VALID,0.100563,VALID,25.7889,VALID,26,VALID,0.537109,
2008-05-29, 00:20:04,VALID,1004.37,VALID,0,VALID,87.015,VALID,0.100563,VALID,25.709,VALID,26,VALID,0.501562,
2008-05-29, 00:21:04,VALID,1004.35,VALID,0,VALID,87.2515,VALID,0.100563,VALID,25.67,VALID,24,VALID,0.583984,
2008-05-29, 00:22:04,VALID,1004.34,VALID,0,VALID,87.4499,VALID,0.100563,VALID,25.6525,VALID,22,VALID,0.529297,
2008-05-29, 00:23:04,VALID,1004.35,VALID,0,VALID,87.6406,VALID,0.100563,VALID,25.5921,VALID,18,VALID,0.626562,
2008-05-29, 00:24:04,VALID,1004.32,VALID,0,VALID,87.7398,VALID,0.100563,VALID,25.6136,VALID,35,VALID,0.608594,
2008-05-29, 00:25:04,VALID,1004.31,VALID,0,VALID,87.816,VALID,0.100563,VALID,25.6136,VALID,15,VALID,0.448438,
2008-05-29, 00:26:04,VALID,1004.32,VALID,0,VALID,87.7932,VALID,0.100563,VALID,25.6116,VALID,60,VALID,0.361719,
2008-05-29, 00:27:04,VALID,1004.28,VALID,0,VALID,87.9381,VALID,0.100563,VALID,25.5921,VALID,25,VALID,0.391797,
2008-05-29, 00:28:04,VALID,1004.27,VALID,0,VALID,87.8084,VALID,0.100563,VALID,25.6311,VALID,83,VALID,0.273828,
2008-05-29, 00:29:04,VALID,1004.28,VALID,0,VALID,87.6787,VALID,0.100563,VALID,25.6116,VALID,41,VALID,0.327734,
2008-05-29, 00:30:04,VALID,1004.28,VALID,0,VALID,87.7169,VALID,0,VALID,25.5727,VALID,41,VALID,0.0738281,
2008-05-29, 00:31:04,VALID,1004.27,VALID,0,VALID,88.0068,VALID,0,VALID,25.5337,VALID,41,VALID,0.189063,
2008-05-29, 00:32:04,VALID,1004.28,VALID,0,VALID,88.0144,VALID,0,VALID,25.5142,VALID,51,VALID,0.364062,
2008-05-29, 00:33:04,VALID,1004.28,VALID,0,VALID,88.2127,VALID,0.100563,VALID,25.4948,VALID,51,VALID,0.221875,
2008-05-29, 00:34:04,VALID,1004.26,VALID,0,VALID,88.3348,VALID,0,VALID,25.4772,VALID,49,VALID,0.310156,
2008-05-29, 00:35:04,VALID,1004.26,VALID,0,VALID,88.3806,VALID,0,VALID,25.4772,VALID,49,VALID,0.405469,
2008-05-29, 00:36:04,VALID,1004.27,VALID,0,VALID,88.4416,VALID,0,VALID,25.4753,VALID,49,VALID,0.212891,
2008-05-29, 00:37:04,VALID,1004.24,VALID,0,VALID,88.2204,VALID,0.100563,VALID,25.4753,VALID,49,VALID,0.187891,
2008-05-29, 00:38:04,VALID,1004.24,VALID,0,VALID,88.2127,VALID,0,VALID,25.4169,VALID,49,VALID,0.226563,
2008-05-29, 00:39:04,VALID,1004.24,VALID,0,VALID,88.5789,VALID,0.100563,VALID,25.4363,VALID,12,VALID,0.438672,
2008-05-29, 00:40:04,VALID,1004.24,VALID,0,VALID,88.3729,VALID,0.100563,VALID,25.3974,VALID,13,VALID,0.353125,
2008-05-29, 00:41:04,VALID,1004.22,VALID,0,VALID,88.7925,VALID,0,VALID,25.4188,VALID,40,VALID,0.904297,
2008-05-29, 00:42:04,VALID,1004.22,VALID,0,VALID,88.7849,VALID,0.100563,VALID,25.4577,VALID,43,VALID,0.796094,
2008-05-29, 00:43:04,VALID,1004.22,VALID,0,VALID,88.5713,VALID,0,VALID,25.5162,VALID,52,VALID,0.485938,
2008-05-29, 00:44:04,VALID,1004.22,VALID,0,VALID,88.228,VALID,0.100563,VALID,25.5337,VALID,43,VALID,0.485156,
2008-05-29, 00:45:04,VALID,1004.25,VALID,0,VALID,88.2356,VALID,0.100563,VALID,25.5337,VALID,24,VALID,0.898828,
2008-05-29, 00:46:04,VALID,1004.23,VALID,0,VALID,88.1899,VALID,0.100563,VALID,25.5357,VALID,25,VALID,0.444531,
2008-05-29, 00:47:04,VALID,1004.23,VALID,0,VALID,88.289,VALID,0.100563,VALID,25.4753,VALID,26,VALID,0.391797,
2008-05-29, 00:48:04,VALID,1004.21,VALID,0,VALID,88.3195,VALID,0.100563,VALID,25.4753,VALID,30,VALID,0.29375,
2008-05-29, 00:49:04,VALID,1004.24,VALID,0,VALID,88.3348,VALID,0.100563,VALID,25.4363,VALID,30,VALID,0.222266,
2008-05-29, 00:50:04,VALID,1004.24,VALID,0,VALID,88.6552,VALID,0.100563,VALID,25.3974,VALID,359,VALID,0.930078,
2008-05-29, 00:51:04,VALID,1004.24,VALID,0,VALID,88.762,VALID,0,VALID,25.3974,VALID,30,VALID,0.675,
2008-05-29, 00:52:04,VALID,1004.24,VALID,0,VALID,88.7391,VALID,0,VALID,25.4383,VALID,56,VALID,0.414063,
2008-05-29, 00:53:04,VALID,1004.22,VALID,0,VALID,88.6628,VALID,0.100563,VALID,25.4169,VALID,23,VALID,1.18008,
2008-05-29, 00:54:04,VALID,1004.22,VALID,0,VALID,88.6018,VALID,0.100563,VALID,25.3974,VALID,20,VALID,1.59336,
2008-05-29, 00:55:04,VALID,1004.16,VALID,0,VALID,88.7849,VALID,0,VALID,25.4383,VALID,360,VALID,1.02891,
2008-05-29, 00:56:04,VALID,1004.14,VALID,0,VALID,88.5332,VALID,0,VALID,25.4383,VALID,360,VALID,0.605078,
2008-05-29, 00:57:04,VALID,1004.13,VALID,0,VALID,88.7162,VALID,0,VALID,25.4597,VALID,46,VALID,1.15586,
2008-05-29, 00:58:04,VALID,1004.15,VALID,0,VALID,88.5637,VALID,0,VALID,25.4986,VALID,64,VALID,0.429688,
2008-05-29, 00:59:04,VALID,1004.11,VALID,0,VALID,88.5026,VALID,0,VALID,25.4772,VALID,17,VALID,1.08711,
2008-05-29, 01:00:04,VALID,1004.1,VALID,0,VALID,88.5103,VALID,0,VALID,25.4772,VALID,356,VALID,0.485156,
2008-05-29, 01:01:04,VALID,1004.13,VALID,0,VALID,88.5789,VALID,0,VALID,25.4577,VALID,27,VALID,0.599219,
2008-05-29, 01:02:04,VALID,1004.11,VALID,0,VALID,88.556,VALID,0,VALID,25.4967,VALID,40,VALID,0.689844,
2008-05-29, 01:03:04,VALID,1004.1,VALID,0,VALID,88.4569,VALID,0,VALID,25.4772,VALID,15,VALID,0.540625,
2008-05-29, 01:04:04,VALID,1004.11,VALID,0,VALID,88.3806,VALID,0,VALID,25.4577,VALID,15,VALID,0.741797,
2008-05-29, 01:05:04,VALID,1004.08,VALID,0,VALID,88.6476,VALID,0,VALID,25.4792,VALID,37,VALID,0.750391,
2008-05-29, 01:06:04,VALID,1004.07,VALID,0,VALID,88.5713,VALID,0,VALID,25.4986,VALID,48,VALID,0.160547,
2008-05-29, 01:07:04,VALID,1004.05,VALID,0,VALID,88.5408,VALID,0,VALID,25.4986,VALID,5,VALID,0.321875,
2008-05-29, 01:08:04,VALID,1004.04,VALID,0,VALID,88.4798,VALID,0,VALID,25.4967,VALID,5,VALID,0.314063,
2008-05-29, 01:09:04,VALID,1004.03,VALID,0,VALID,88.434,VALID,0,VALID,25.4967,VALID,8,VALID,0.174219,
2008-05-29, 01:10:04,VALID,1004.04,VALID,0,VALID,88.3806,VALID,0,VALID,25.5181,VALID,20,VALID,0.519141,
2008-05-29, 01:11:04,VALID,1004.06,VALID,0,VALID,88.3348,VALID,0,VALID,25.5162,VALID,37,VALID,0.407031,
2008-05-29, 01:12:04,VALID,1004.07,VALID,0,VALID,88.3348,VALID,0,VALID,25.4967,VALID,28,VALID,0.854688,
2008-05-29, 01:13:04,VALID,1004.08,VALID,0,VALID,88.3348,VALID,0,VALID,25.5376,VALID,36,VALID,0.670313,
2008-05-29, 01:14:04,VALID,1004.07,VALID,0,VALID,88.2967,VALID,0,VALID,25.4986,VALID,35,VALID,0.344531,
2008-05-29, 01:15:04,VALID,1004.08,VALID,0,VALID,88.5942,VALID,0,VALID,25.5181,VALID,40,VALID,1.175,
2008-05-29, 01:16:04,VALID,1004.07,VALID,0,VALID,88.3577,VALID,0,VALID,25.5551,VALID,26,VALID,1.07461,
2008-05-29, 01:17:04,VALID,1004.08,VALID,0,VALID,88.2585,VALID,0,VALID,25.5765,VALID,33,VALID,0.802344,
2008-05-29, 01:18:04,VALID,1004.07,VALID,0,VALID,88.1822,VALID,0,VALID,25.5941,VALID,37,VALID,1.17266,
2008-05-29, 01:19:04,VALID,1004.03,VALID,0,VALID,88.0449,VALID,0,VALID,25.633,VALID,344,VALID,0.733984,
2008-05-29, 01:20:04,VALID,1003.96,VALID,0,VALID,87.8237,VALID,0,VALID,25.672,VALID,14,VALID,0.429297,
2008-05-29, 01:21:04,VALID,1003.94,VALID,0,VALID,87.6863,VALID,0,VALID,25.6915,VALID,60,VALID,0.839063,
2008-05-29, 01:22:04,VALID,1003.97,VALID,0,VALID,87.5719,VALID,0,VALID,25.7519,VALID,18,VALID,0.951563,
2008-05-29, 01:23:04,VALID,1004.03,VALID,0,VALID,87.4727,VALID,0,VALID,25.7519,VALID,20,VALID,0.595312,
2008-05-29, 01:24:04,VALID,1004.02,VALID,0,VALID,87.5719,VALID,0,VALID,25.7304,VALID,83,VALID,0.682031,
2008-05-29, 01:25:04,VALID,1004.06,VALID,0,VALID,87.4346,VALID,0,VALID,25.7499,VALID,92,VALID,1.45859,
2008-05-29, 01:26:04,VALID,1004.13,VALID,0,VALID,87.4041,VALID,0,VALID,25.7889,VALID,113,VALID,1.65898,
2008-05-29, 01:27:04,VALID,1004.17,VALID,0,VALID,87.6482,VALID,0,VALID,25.7499,VALID,124,VALID,2.50977,
2008-05-29, 01:28:04,VALID,1004.18,VALID,0,VALID,87.9686,VALID,0,VALID,25.6525,VALID,114,VALID,2.36836,
2008-05-29, 01:29:04,VALID,1004.22,VALID,0,VALID,88.2814,VALID,0,VALID,25.596,VALID,104,VALID,1.64023,
2008-05-29, 01:30:04,VALID,1004.31,VALID,0.5,VALID,88.6781,VALID,0,VALID,25.4967,VALID,75,VALID,2.09766,
2008-05-29, 01:31:04,VALID,1004.29,VALID,0.5,VALID,88.0373,VALID,0,VALID,25.226,VALID,93,VALID,3.12227,
2008-05-29, 01:32:04,VALID,1004.28,VALID,0.5,VALID,89.7233,VALID,0,VALID,24.9728,VALID,62,VALID,1.7207,
2008-05-29, 01:33:04,VALID,1004.24,VALID,0.5,VALID,91.0812,VALID,0,VALID,24.7372,VALID,70,VALID,1.65195,
2008-05-29, 01:34:04,VALID,1004.22,VALID,0,VALID,91.8212,VALID,0,VALID,24.5814,VALID,77,VALID,1.36328,
2008-05-29, 01:35:04,VALID,1004.17,VALID,0.5,VALID,92.4697,VALID,0,VALID,24.4859,VALID,145,VALID,1.07852,
2008-05-29, 01:36:04,VALID,1004.13,VALID,0,VALID,92.9884,VALID,0,VALID,24.3867,VALID,86,VALID,0.58125,
2008-05-29, 01:37:04,VALID,1004.09,VALID,0,VALID,93.2859,VALID,0,VALID,24.3283,VALID,4,VALID,0.621094,
2008-05-29, 01:38:04,VALID,1004,VALID,0.5,VALID,93.614,VALID,0,VALID,24.2717,VALID,354,VALID,0.448828,
2008-05-29, 01:39:04,VALID,1003.96,VALID,0,VALID,93.942,VALID,0,VALID,24.2523,VALID,339,VALID,0.693359,
2008-05-29, 01:40:04,VALID,1003.9,VALID,0,VALID,94.087,VALID,0,VALID,24.2097,VALID,355,VALID,0.850391,
2008-05-29, 01:41:04,VALID,1003.88,VALID,0,VALID,94.2472,VALID,0,VALID,24.2115,VALID,359,VALID,0.570313,
2008-05-29, 01:42:04,VALID,1003.81,VALID,0,VALID,94.4303,VALID,0,VALID,24.192,VALID,335,VALID,0.164844,
2008-05-29, 01:43:04,VALID,1003.79,VALID,0,VALID,94.3921,VALID,0,VALID,24.1726,VALID,352,VALID,0.801953,
2008-05-29, 01:44:04,VALID,1003.77,VALID,0,VALID,94.3387,VALID,0,VALID,24.1336,VALID,352,VALID,0.717188,
2008-05-29, 01:45:04,VALID,1003.76,VALID,0,VALID,94.4455,VALID,0,VALID,24.1142,VALID,351,VALID,0.795313,
2008-05-29, 01:46:04,VALID,1003.74,VALID,0,VALID,94.5523,VALID,0,VALID,24.0947,VALID,355,VALID,0.670703,
2008-05-29, 01:47:04,VALID,1003.72,VALID,0,VALID,94.621,VALID,0,VALID,24.0539,VALID,355,VALID,0.580469,
2008-05-29, 01:48:04,VALID,1003.71,VALID,0,VALID,94.7125,VALID,0,VALID,24.0752,VALID,7,VALID,0.672656,
2008-05-29, 01:49:04,VALID,1003.68,VALID,0,VALID,94.7431,VALID,0,VALID,24.0557,VALID,11,VALID,0.600781,
2008-05-29, 01:50:04,VALID,1003.65,VALID,0,VALID,94.8194,VALID,0.100563,VALID,24.015,VALID,18,VALID,0.821094,
2008-05-29, 01:51:04,VALID,1003.64,VALID,0,VALID,94.8956,VALID,0,VALID,23.9955,VALID,19,VALID,0.8625,
2008-05-29, 01:52:04,VALID,1003.63,VALID,0,VALID,95.0177,VALID,0,VALID,24.015,VALID,23,VALID,1.06914,
2008-05-29, 01:53:04,VALID,1003.63,VALID,0,VALID,95.1245,VALID,0,VALID,24.0752,VALID,19,VALID,0.824219,
2008-05-29, 01:54:04,VALID,1003.57,VALID,0,VALID,95.1169,VALID,0,VALID,24.0734,VALID,20,VALID,0.921875,
2008-05-29, 01:55:04,VALID,1003.6,VALID,0,VALID,95.1398,VALID,0,VALID,24.0929,VALID,359,VALID,0.975391,
2008-05-29, 01:56:04,VALID,1003.59,VALID,0,VALID,95.155,VALID,0,VALID,24.1336,VALID,20,VALID,0.730469,
2008-05-29, 01:57:04,VALID,1003.59,VALID,0,VALID,95.1398,VALID,0,VALID,24.1318,VALID,16,VALID,0.477734,
2008-05-29, 01:58:04,VALID,1003.56,VALID,0,VALID,95.155,VALID,0,VALID,24.1531,VALID,16,VALID,0.454688,
2008-05-29, 01:59:04,VALID,1003.59,VALID,0,VALID,95.3152,VALID,0,VALID,24.1707,VALID,34,VALID,0.881641,
2008-05-29, 02:00:04,VALID,1003.61,VALID,0,VALID,95.4526,VALID,0,VALID,24.2875,VALID,28,VALID,0.679688,
2008-05-29, 02:01:04,VALID,1003.56,VALID,0,VALID,95.3457,VALID,0,VALID,24.3673,VALID,328,VALID,1.03984,
2008-05-29, 02:02:04,VALID,1003.58,VALID,0,VALID,95.2313,VALID,0,VALID,24.4062,VALID,354,VALID,0.457422,
2008-05-29, 02:03:04,VALID,1003.57,VALID,0,VALID,95.0635,VALID,0,VALID,24.4043,VALID,15,VALID,0.605469,
2008-05-29, 02:04:04,VALID,1003.57,VALID,0,VALID,94.9414,VALID,0,VALID,24.4257,VALID,23,VALID,0.122656,
2008-05-29, 02:05:04,VALID,1003.59,VALID,0,VALID,95.0253,VALID,0.100563,VALID,24.4043,VALID,42,VALID,0.624219,
2008-05-29, 02:06:04,VALID,1003.59,VALID,0,VALID,95.1016,VALID,0.100563,VALID,24.4646,VALID,30,VALID,0.340234,
2008-05-29, 02:07:04,VALID,1003.6,VALID,0,VALID,95.0482,VALID,0,VALID,24.4841,VALID,69,VALID,0.616797,
2008-05-29, 02:08:04,VALID,1003.6,VALID,0,VALID,95.0482,VALID,0.100563,VALID,24.5017,VALID,76,VALID,0.0808594,
2008-05-29, 02:09:04,VALID,1003.6,VALID,0,VALID,94.9948,VALID,0,VALID,24.523,VALID,43,VALID,0.445313,
2008-05-29, 02:10:04,VALID,1003.58,VALID,0,VALID,94.8804,VALID,0,VALID,24.4841,VALID,43,VALID,0.165234,
2008-05-29, 02:11:04,VALID,1003.61,VALID,0,VALID,94.8422,VALID,0,VALID,24.4646,VALID,44,VALID,0.2625,
2008-05-29, 02:12:04,VALID,1003.58,VALID,0,VALID,94.8728,VALID,0,VALID,24.4646,VALID,44,VALID,0.283984,
2008-05-29, 02:13:04,VALID,1003.59,VALID,0,VALID,94.9643,VALID,0,VALID,24.4646,VALID,44,VALID,0.399219,
2008-05-29, 02:14:04,VALID,1003.58,VALID,0,VALID,95.0711,VALID,0,VALID,24.523,VALID,23,VALID,1.02539,
2008-05-29, 02:15:04,VALID,1003.58,VALID,0,VALID,94.9643,VALID,0,VALID,24.562,VALID,31,VALID,0.314453,
2008-05-29, 02:16:04,VALID,1003.61,VALID,0,VALID,94.8575,VALID,0,VALID,24.562,VALID,20,VALID,1.08867,
2008-05-29, 02:17:04,VALID,1003.59,VALID,0,VALID,94.7278,VALID,0,VALID,24.6009,VALID,57,VALID,0.963672,
2008-05-29, 02:18:04,VALID,1003.59,VALID,0,VALID,94.7507,VALID,0,VALID,24.6398,VALID,47,VALID,0.906641,
2008-05-29, 02:19:04,VALID,1003.56,VALID,0,VALID,94.5447,VALID,0,VALID,24.6983,VALID,7,VALID,1.07852,
2008-05-29, 02:20:04,VALID,1003.56,VALID,0,VALID,94.3311,VALID,0,VALID,24.7177,VALID,27,VALID,0.646094,
2008-05-29, 02:21:04,VALID,1003.55,VALID,0,VALID,94.2014,VALID,0,VALID,24.6983,VALID,66,VALID,1.15273,
2008-05-29, 02:22:04,VALID,1003.55,VALID,0,VALID,94.1175,VALID,0,VALID,24.7177,VALID,88,VALID,0.534766,
2008-05-29, 02:23:04,VALID,1003.54,VALID,0,VALID,94.0946,VALID,0,VALID,24.6983,VALID,2,VALID,0.507422,
2008-05-29, 02:24:04,VALID,1003.53,VALID,0,VALID,94.1175,VALID,0,VALID,24.6788,VALID,15,VALID,1.05234,
2008-05-29, 02:25:04,VALID,1003.51,VALID,0,VALID,94.0794,VALID,0,VALID,24.6788,VALID,23,VALID,1.42461,
2008-05-29, 02:26:04,VALID,1003.52,VALID,0,VALID,93.9954,VALID,0,VALID,24.6983,VALID,31,VALID,0.847656,
2008-05-29, 02:27:04,VALID,1003.52,VALID,0,VALID,93.9344,VALID,0,VALID,24.6574,VALID,26,VALID,1.01367,
2008-05-29, 02:28:04,VALID,1003.51,VALID,0,VALID,93.9268,VALID,0,VALID,24.6574,VALID,25,VALID,0.530078,
2008-05-29, 02:29:04,VALID,1003.48,VALID,0,VALID,93.7971,VALID,0,VALID,24.638,VALID,21,VALID,0.820313,
2008-05-29, 02:30:04,VALID,1003.49,VALID,0,VALID,93.6369,VALID,0,VALID,24.6204,VALID,25,VALID,0.9625,
2008-05-29, 02:31:04,VALID,1003.47,VALID,0,VALID,93.4767,VALID,0,VALID,24.6009,VALID,357,VALID,1.04414,
2008-05-29, 02:32:04,VALID,1003.49,VALID,0,VALID,93.2859,VALID,0,VALID,24.5406,VALID,25,VALID,1.07969,
2008-05-29, 02:33:04,VALID,1003.47,VALID,0,VALID,93.1486,VALID,0,VALID,24.5425,VALID,44,VALID,0.647266,
2008-05-29, 02:34:04,VALID,1003.47,VALID,0,VALID,93.2707,VALID,0,VALID,24.523,VALID,23,VALID,0.466016,
2008-05-29, 02:35:04,VALID,1003.49,VALID,0,VALID,93.3622,VALID,0,VALID,24.5035,VALID,11,VALID,0.612109,
2008-05-29, 02:36:04,VALID,1003.48,VALID,0,VALID,92.8969,VALID,0,VALID,24.4665,VALID,18,VALID,1.02031,
2008-05-29, 02:37:04,VALID,1003.46,VALID,0,VALID,92.6375,VALID,0,VALID,24.4451,VALID,20,VALID,1.8918,
2008-05-29, 02:38:04,VALID,1003.48,VALID,0,VALID,92.4239,VALID,0,VALID,24.4646,VALID,41,VALID,0.946875,
2008-05-29, 02:39:04,VALID,1003.46,VALID,0,VALID,92.5688,VALID,0,VALID,24.4646,VALID,28,VALID,0.445313,
2008-05-29, 02:40:04,VALID,1003.47,VALID,0,VALID,92.6299,VALID,0,VALID,24.4238,VALID,29,VALID,0.536719,
2008-05-29, 02:41:04,VALID,1003.48,VALID,0,VALID,92.7824,VALID,0,VALID,24.4062,VALID,19,VALID,0.932031,
2008-05-29, 02:42:04,VALID,1003.47,VALID,0,VALID,92.6299,VALID,0,VALID,24.4043,VALID,41,VALID,0.928906,
2008-05-29, 02:43:04,VALID,1003.45,VALID,0,VALID,92.6299,VALID,0,VALID,24.4451,VALID,38,VALID,0.558203,
2008-05-29, 02:44:04,VALID,1003.45,VALID,0,VALID,92.6146,VALID,0,VALID,24.4257,VALID,40,VALID,0.573438,
2008-05-29, 02:45:04,VALID,1003.42,VALID,0,VALID,92.6604,VALID,0,VALID,24.4062,VALID,77,VALID,0.664453,
2008-05-29, 02:46:04,VALID,1003.45,VALID,0,VALID,92.7062,VALID,0,VALID,24.3867,VALID,53,VALID,0.634766,
2008-05-29, 02:47:04,VALID,1003.42,VALID,0,VALID,92.7748,VALID,0,VALID,24.3867,VALID,38,VALID,0.516797,
2008-05-29, 02:48:04,VALID,1003.42,VALID,0,VALID,92.8892,VALID,0,VALID,24.3478,VALID,28,VALID,0.497656,
2008-05-29, 02:49:04,VALID,1003.4,VALID,0,VALID,93.0189,VALID,0,VALID,24.307,VALID,27,VALID,0.524219,
2008-05-29, 02:50:04,VALID,1003.42,VALID,0,VALID,93.1791,VALID,0.100563,VALID,24.3088,VALID,27,VALID,0.255859,
2008-05-29, 02:51:04,VALID,1003.4,VALID,0,VALID,93.2554,VALID,0,VALID,24.2699,VALID,76,VALID,0.781641,
2008-05-29, 02:52:04,VALID,1003.41,VALID,0,VALID,93.2707,VALID,0,VALID,24.2699,VALID,10,VALID,0.323828,
2008-05-29, 02:53:04,VALID,1003.43,VALID,0,VALID,93.3241,VALID,0,VALID,24.2699,VALID,28,VALID,1.02969,
2008-05-29, 02:54:04,VALID,1003.41,VALID,0,VALID,93.3088,VALID,0,VALID,24.3283,VALID,41,VALID,0.501953,
2008-05-29, 02:55:04,VALID,1003.43,VALID,0,VALID,93.1944,VALID,0,VALID,24.2875,VALID,26,VALID,1.0668,
2008-05-29, 02:56:04,VALID,1003.44,VALID,0,VALID,93.141,VALID,0,VALID,24.3673,VALID,58,VALID,0.291016,
2008-05-29, 02:57:04,VALID,1003.44,VALID,0,VALID,93.0189,VALID,0,VALID,24.3867,VALID,24,VALID,1.06992,
2008-05-29, 02:58:04,VALID,1003.44,VALID,0,VALID,93.0189,VALID,0,VALID,24.3867,VALID,21,VALID,0.660156,
2008-05-29, 02:59:04,VALID,1003.47,VALID,0,VALID,93.0037,VALID,0,VALID,24.3673,VALID,16,VALID,0.370313,
2008-05-29, 03:00:04,VALID,1003.46,VALID,0,VALID,93.0113,VALID,0,VALID,24.3459,VALID,349,VALID,0.397656,
2008-05-29, 03:01:04,VALID,1003.47,VALID,0,VALID,93.1639,VALID,0,VALID,24.3867,VALID,21,VALID,1.32969,
2008-05-29, 03:02:04,VALID,1003.5,VALID,0,VALID,92.8892,VALID,0,VALID,24.4646,VALID,10,VALID,0.557813,
2008-05-29, 03:03:04,VALID,1003.49,VALID,0,VALID,92.4925,VALID,0,VALID,24.5814,VALID,51,VALID,0.873828,
2008-05-29, 03:04:04,VALID,1003.5,VALID,0,VALID,92.3095,VALID,0,VALID,24.6398,VALID,53,VALID,0.200391,
2008-05-29, 03:05:04,VALID,1003.5,VALID,0,VALID,92.3476,VALID,0,VALID,24.6204,VALID,29,VALID,0.485938,
2008-05-29, 03:06:04,VALID,1003.51,VALID,0,VALID,92.4239,VALID,0,VALID,24.5212,VALID,9,VALID,0.995703,
2008-05-29, 03:07:04,VALID,1003.52,VALID,0,VALID,92.5993,VALID,0,VALID,24.5425,VALID,24,VALID,1.19375,
2008-05-29, 03:08:04,VALID,1003.58,VALID,0,VALID,92.5993,VALID,0,VALID,24.5601,VALID,20,VALID,0.608594,
2008-05-29, 03:09:04,VALID,1003.61,VALID,0,VALID,92.5765,VALID,0,VALID,24.6009,VALID,45,VALID,0.264453,
2008-05-29, 03:10:04,VALID,1003.63,VALID,0,VALID,92.5307,VALID,0,VALID,24.562,VALID,34,VALID,0.319922,
2008-05-29, 03:11:04,VALID,1003.67,VALID,0,VALID,92.5688,VALID,0,VALID,24.5425,VALID,49,VALID,0.442187,
2008-05-29, 03:12:04,VALID,1003.71,VALID,0,VALID,92.5612,VALID,0,VALID,24.523,VALID,99,VALID,0.138672,
2008-05-29, 03:13:04,VALID,1003.72,VALID,0,VALID,92.6299,VALID,0,VALID,24.5035,VALID,99,VALID,0.288281,
2008-05-29, 03:14:04,VALID,1003.72,VALID,0,VALID,92.668,VALID,0,VALID,24.4841,VALID,98,VALID,0.194141,
2008-05-29, 03:15:04,VALID,1003.72,VALID,0,VALID,92.6985,VALID,0,VALID,24.4646,VALID,19,VALID,0.779297,
2008-05-29, 03:16:04,VALID,1003.7,VALID,0,VALID,92.9274,VALID,0,VALID,24.4257,VALID,40,VALID,1.02617,
2008-05-29, 03:17:04,VALID,1003.71,VALID,0,VALID,93.0418,VALID,0,VALID,24.4257,VALID,8,VALID,0.703125,
2008-05-29, 03:18:04,VALID,1003.67,VALID,0,VALID,93.0495,VALID,0.100563,VALID,24.4043,VALID,14,VALID,1.39648,
2008-05-29, 03:19:04,VALID,1003.72,VALID,0,VALID,93.0495,VALID,0,VALID,24.4646,VALID,37,VALID,0.466797,
2008-05-29, 03:20:04,VALID,1003.72,VALID,0,VALID,92.935,VALID,0,VALID,24.4257,VALID,39,VALID,0.704297,
2008-05-29, 03:21:04,VALID,1003.72,VALID,0,VALID,92.9808,VALID,0,VALID,24.3654,VALID,10,VALID,0.735547,
2008-05-29, 03:22:04,VALID,1003.73,VALID,0,VALID,93.1105,VALID,0,VALID,24.3654,VALID,21,VALID,0.754687,
2008-05-29, 03:23:04,VALID,1003.72,VALID,0,VALID,93.2707,VALID,0,VALID,24.3867,VALID,16,VALID,1.07734,
2008-05-29, 03:24:04,VALID,1003.73,VALID,0,VALID,93.3317,VALID,0,VALID,24.4062,VALID,40,VALID,0.314063,
2008-05-29, 03:25:04,VALID,1003.72,VALID,0,VALID,93.3088,VALID,0,VALID,24.4451,VALID,39,VALID,0.348437,
2008-05-29, 03:26:04,VALID,1003.75,VALID,0,VALID,93.2859,VALID,0,VALID,24.4646,VALID,53,VALID,0.568359,
2008-05-29, 03:27:04,VALID,1003.75,VALID,0,VALID,93.1944,VALID,0,VALID,24.4841,VALID,67,VALID,0.464063,
2008-05-29, 03:28:04,VALID,1003.79,VALID,0,VALID,93.1715,VALID,0,VALID,24.5035,VALID,81,VALID,0.524609,
2008-05-29, 03:29:04,VALID,1003.85,VALID,0,VALID,93.0418,VALID,0,VALID,24.5035,VALID,146,VALID,0.720312,
2008-05-29, 03:30:04,VALID,1003.88,VALID,0,VALID,92.9121,VALID,0,VALID,24.5035,VALID,169,VALID,0.983984,
2008-05-29, 03:31:04,VALID,1003.91,VALID,0,VALID,92.7901,VALID,0,VALID,24.5035,VALID,192,VALID,1.82305,
2008-05-29, 03:32:04,VALID,1003.92,VALID,0,VALID,92.7367,VALID,0,VALID,24.4646,VALID,183,VALID,2.15117,
2008-05-29, 03:33:04,VALID,1003.91,VALID,0,VALID,92.9579,VALID,0,VALID,24.5425,VALID,145,VALID,2.23672,
2008-05-29, 03:34:04,VALID,1003.88,VALID,0,VALID,92.9426,VALID,0,VALID,24.6204,VALID,143,VALID,2.50547,
2008-05-29, 03:35:04,VALID,1003.94,VALID,0,VALID,93.0037,VALID,0,VALID,24.7177,VALID,169,VALID,2.65156,
2008-05-29, 03:36:04,VALID,1003.96,VALID,0,VALID,92.6909,VALID,0,VALID,24.7761,VALID,161,VALID,2.8457,
2008-05-29, 03:37:04,VALID,1003.96,VALID,0,VALID,92.5536,VALID,0,VALID,24.8151,VALID,134,VALID,1.2918,
2008-05-29, 03:38:04,VALID,1003.92,VALID,0,VALID,92.4849,VALID,0,VALID,24.8346,VALID,153,VALID,1.40703,
2008-05-29, 03:39:04,VALID,1003.91,VALID,0,VALID,92.2408,VALID,0,VALID,24.8346,VALID,120,VALID,1.79414,
2008-05-29, 03:40:04,VALID,1003.94,VALID,0,VALID,91.9662,VALID,0,VALID,24.8327,VALID,150,VALID,2.64453,
2008-05-29, 03:41:04,VALID,1003.92,VALID,0,VALID,91.6534,VALID,0,VALID,24.9143,VALID,127,VALID,2.39414,
2008-05-29, 03:42:04,VALID,1003.88,VALID,0,VALID,91.2262,VALID,0,VALID,24.893,VALID,125,VALID,2.50156,
2008-05-29, 03:43:04,VALID,1003.93,VALID,0,VALID,91.0354,VALID,0,VALID,24.893,VALID,109,VALID,1.83672,
2008-05-29, 03:44:04,VALID,1003.94,VALID,0,VALID,90.7074,VALID,0,VALID,24.8559,VALID,124,VALID,1.82578,